Location: Asheville, NC
(35.6000°N, 82.5500°W)
Time: 03:47:31
(UTC-05:00)

NO-84 - Pass Details

Date: 07 January 2018
Orbit: 336 x 568 km, 55.0° (Epoch: 18 January)

Event Time Altitude Azimuth Distance (km) Brightness Sun altitude
Exits shadow 06:21:22 38° 286° (WNW) 649 ? -15.7°
Maximum altitude 06:22:20 55° 230° (SW) 507 ? -15.5°
Drops below altitude 10° 06:25:45 10° 151° (SSE) 1,559 ? -14.9°
Sets 06:27:59 0° 147° (SSE) 2,475 ? -14.4°
